(504259) = 2006 VU47 = 2012 YQ7

Discovered at Mount Lemmon on 2006-10-27 by Mt. Lemmon Survey.

Orbit

Orbit type: Main Belt

Note: WebGL enabled browser required.

epoch2024-03-31.0
epoch JD2460400.5
perihelion date2023-12-20.42676
perihelion JD2460298.92676
argument of perihelion (°)48.00298
ascending node (°)50.31738
inclination (°)17.35642
eccentricity0.2055413
perihelion distance (AU)2.4963957
Tisserand w.r.t. Jupiter3.1
ΔV w.r.t. Earth (km/sec)11.2
semimajor axis (AU)3.1422601
mean anomaly (°)17.97297
mean daily motion (°/day)0.17694600
aphelion distance (AU)3.788
period (years)5.57
P-vector [x]-0.11866579
P-vector [y]0.79981297
P-vector [z]0.58840263
Q-vector [x]-0.96602843
Q-vector [y]-0.23001124
Q-vector [z]0.11782994
absolute magnitude17.1
phase slope0.15
uncertainty0
referenceMPEC 2024-E179
observations used113
oppositions7
arc length (days)6345
first opposition used2006
last opposition used2024
residual rms (arc-secs)0.61
perturbers coarse indicatorM-v
perturbers precise indicator003Ek
first observation date used2006-10-27.0
last observation date used2024-03-11.0
computer nameMPCLINUX
JD of orbit computation2458050.206062
perihelion JD uncertainty (days)8.9320E-05
argument of perihelion uncertainty (°)2.3962E-05
ascending node uncertainty (°)1.2833E-05
inclination uncertainty (°)5.3818E-06
eccentricity uncertainty 4.2516E-08
perihelion distance uncertainty (AU)1.2927E-07
Minimum Orbit Intersection Distances (in AU)
for orbit epoch: 2460200.5, reference: E2024-A34
Mercury2.18776
Venus1.79634
Earth1.54532
Mars0.98951
Jupiter1.70225
Saturn6.42699
Uranus15.3576
Neptune26.6939

Observations

113 total observations over interval: 2006 10 27.39513 – 2024 03 11.185680
These data are available for download (format description).

Date (UT) J2000 RA J2000 Dec Magn Location Ref
2006 10 27.39513 03 48 05.43 +19 30 18.0 20.5 V G96 – Mt. Lemmon Survey MPS 391156
2006 10 27.40618 03 48 04.93 +19 30 20.9 20.5 V G96 – Mt. Lemmon Survey MPS 391156
2006 10 27.41729 03 48 04.39 +19 30 24.3 20.7 V G96 – Mt. Lemmon Survey MPS 391156
2006 10 27.42839 03 48 03.81 +19 30 27.0 20.5 V G96 – Mt. Lemmon Survey MPS 391156
2006 11 09.29223 03 36 17.95 +20 25 57.1   691 – Steward Observatory, Kitt Peak-Spacewatch MPS 188884
2006 11 09.30242 03 36 17.29 +20 25 59.9   691 – Steward Observatory, Kitt Peak-Spacewatch MPS 188884
2006 11 09.31260 03 36 16.61 +20 26 02.0   691 – Steward Observatory, Kitt Peak-Spacewatch MPS 188884
2006 11 16.12685 03 29 04.34 +20 52 54.3 20.7 V 691 – Steward Observatory, Kitt Peak-Spacewatch MPS 188884
2006 11 16.14424 03 29 03.17 +20 52 58.7 20.5 V 691 – Steward Observatory, Kitt Peak-Spacewatch MPS 188884
2006 11 16.16164 03 29 01.99 +20 53 02.9 20.6 V 691 – Steward Observatory, Kitt Peak-Spacewatch MPS 188884
2006 12 10.07957 03 05 02.65 +22 14 32.5   691 – Steward Observatory, Kitt Peak-Spacewatch MPS 391156
2006 12 10.10004 03 05 01.60 +22 14 36.7   691 – Steward Observatory, Kitt Peak-Spacewatch MPS 391156
2006 12 10.12057 03 05 00.56 +22 14 40.7   691 – Steward Observatory, Kitt Peak-Spacewatch MPS 391156
2012 12 28.46368 08 42 49.158 +43 11 47.31 20.7 z F51 – Pan-STARRS 1, Haleakala MPS 448855
2012 12 28.46664 08 42 49.053 +43 11 49.13 20.8 z F51 – Pan-STARRS 1, Haleakala MPS 448855
2012 12 28.47257 08 42 48.818 +43 11 53.03 20.6 z F51 – Pan-STARRS 1, Haleakala MPS 448855
2012 12 28.48440 08 42 48.396 +43 12 00.26 20.6 z F51 – Pan-STARRS 1, Haleakala MPS 448855
2013 01 03.366441 08 38 46.27 +44 10 25.9 20.7 V H21 – Astronomical Research Observatory, Westfield MPS 449632
2013 01 03.375645 08 38 45.78 +44 10 31.7 20.3 V H21 – Astronomical Research Observatory, Westfield MPS 449632
2013 01 03.384613 08 38 45.39 +44 10 37.9 20.3 V H21 – Astronomical Research Observatory, Westfield MPS 449632
2013 01 03.46886 08 38 41.703 +44 11 27.57 20.7 r F51 – Pan-STARRS 1, Haleakala MPS 448855
2013 01 03.47035 08 38 41.626 +44 11 28.50 20.6 r F51 – Pan-STARRS 1, Haleakala MPS 448855
2013 01 03.47334 08 38 41.475 +44 11 30.20 20.7 r F51 – Pan-STARRS 1, Haleakala MPS 448855
2013 01 03.47482 08 38 41.399 +44 11 31.04 20.7 r F51 – Pan-STARRS 1, Haleakala MPS 448855
2013 01 03.47779 08 38 41.258 +44 11 32.76 20.7 r F51 – Pan-STARRS 1, Haleakala MPS 448855
2013 01 03.47928 08 38 41.179 +44 11 33.60 20.7 r F51 – Pan-STARRS 1, Haleakala MPS 448855
2014 04 23.27749 14 32 48.95 -08 34 10.9 21.7 V W84 – Cerro Tololo-DECam MPS 785167
2014 04 23.28072 14 32 48.77 -08 34 10.9   W84 – Cerro Tololo-DECam MPS 785167
2014 04 23.28390 14 32 48.60 -08 34 10.7   W84 – Cerro Tololo-DECam MPS 785167
2014 04 23.28707 14 32 48.43 -08 34 10.7   W84 – Cerro Tololo-DECam MPS 785167
2014 04 23.29034 14 32 48.25 -08 34 10.5   W84 – Cerro Tololo-DECam MPS 785167
2014 04 24.29923 14 31 54.77 -08 33 42.5 21.7   W84 – Cerro Tololo-DECam MPS 785167
2014 04 24.30237 14 31 54.60 -08 33 42.5   W84 – Cerro Tololo-DECam MPS 785167
2014 04 24.30551 14 31 54.42 -08 33 42.4   W84 – Cerro Tololo-DECam MPS 785167
2014 04 24.30866 14 31 54.26 -08 33 42.3   W84 – Cerro Tololo-DECam MPS 785167
2014 04 24.31183 14 31 54.09 -08 33 42.2   W84 – Cerro Tololo-DECam MPS 785167
2014 04 25.31584 14 31 00.69 -08 33 15.8 21.6 V W84 – Cerro Tololo-DECam MPS 785167
2014 04 25.31902 14 31 00.52 -08 33 15.8   W84 – Cerro Tololo-DECam MPS 785167
2014 04 25.32215 14 31 00.34 -08 33 15.7   W84 – Cerro Tololo-DECam MPS 785167
2014 04 25.32528 14 31 00.18 -08 33 15.5   W84 – Cerro Tololo-DECam MPS 785167
2014 04 25.32842 14 31 00.01 -08 33 15.5   W84 – Cerro Tololo-DECam MPS 785167
2014 04 26.20187 14 30 13.62 -08 32 53.9   W84 – Cerro Tololo-DECam MPS 785167
2014 04 26.20511 14 30 13.44 -08 32 53.9 21.8 V W84 – Cerro Tololo-DECam MPS 785167
2014 04 26.20835 14 30 13.26 -08 32 53.8   W84 – Cerro Tololo-DECam MPS 785167
2014 04 26.21152 14 30 13.10 -08 32 53.7   W84 – Cerro Tololo-DECam MPS 785167
2014 04 26.21465 14 30 12.91 -08 32 53.5   W84 – Cerro Tololo-DECam MPS 785167
2017 09 24.46421 03 23 55.440 +11 52 11.87 21.5 w F51 – Pan-STARRS 1, Haleakala MPS 819029
2017 09 24.47781 03 23 55.311 +11 52 14.04 21.8 w F51 – Pan-STARRS 1, Haleakala MPS 819029
2017 09 24.49149 03 23 55.187 +11 52 16.57 21.6 w F51 – Pan-STARRS 1, Haleakala MPS 819029
2017 09 24.50509 03 23 55.030 +11 52 18.95 21.9 w F51 – Pan-STARRS 1, Haleakala MPS 819029
2017 10 15.38010 03 15 07.16 +12 48 19.4 21.0 G G96 – Mt. Lemmon Survey MPS 839124
2017 10 15.38530 03 15 06.95 +12 48 20.2 20.5 G G96 – Mt. Lemmon Survey MPS 839124
2017 10 15.39052 03 15 06.67 +12 48 21.2 20.2 G G96 – Mt. Lemmon Survey MPS 839124
2017 10 15.39571 03 15 06.46 +12 48 21.5 20.7 G G96 – Mt. Lemmon Survey MPS 839124
2017 10 23.34449 03 08 53.07 +13 08 06.7 20.6 G G96 – Mt. Lemmon Survey MPS 828180
2017 10 23.34971 03 08 52.79 +13 08 07.7 21.7 G G96 – Mt. Lemmon Survey MPS 828180
2017 10 23.35489 03 08 52.52 +13 08 09.0 21.5 G G96 – Mt. Lemmon Survey MPS 828180
2017 10 23.36011 03 08 52.27 +13 08 09.3 20.8 G G96 – Mt. Lemmon Survey MPS 828180
2017 11 15.26828 02 46 07.85 +14 05 53.6 20.5 G G96 – Mt. Lemmon Survey MPS 839124
2017 11 15.27351 02 46 07.52 +14 05 54.7 20.1 G G96 – Mt. Lemmon Survey MPS 839124
2017 11 15.27870 02 46 07.19 +14 05 55.1 20.7 G G96 – Mt. Lemmon Survey MPS 839124
2017 11 15.28392 02 46 06.86 +14 05 56.4 20.5 G G96 – Mt. Lemmon Survey MPS 839124
2017 11 21.42335 02 39 59.615 +14 23 07.26 20.7 w F51 – Pan-STARRS 1, Haleakala MPS 842903
2017 11 21.43489 02 39 58.922 +14 23 09.25 20.7 w F51 – Pan-STARRS 1, Haleakala MPS 842903
2017 11 21.44649 02 39 58.229 +14 23 11.20 20.7 w F51 – Pan-STARRS 1, Haleakala MPS 842903
2017 11 21.45809 02 39 57.547 +14 23 13.27 20.8 w F51 – Pan-STARRS 1, Haleakala MPS 842903
2017 11 26.21930 02 35 33.36 +14 37 32.7 21.1 G G96 – Mt. Lemmon Survey MPS 845048
2017 11 26.22452 02 35 33.09 +14 37 33.8 20.5 G G96 – Mt. Lemmon Survey MPS 845048
2017 11 26.22970 02 35 32.77 +14 37 34.5 20.3 G G96 – Mt. Lemmon Survey MPS 845048
2017 11 26.23489 02 35 32.54 +14 37 35.5 20.7 G G96 – Mt. Lemmon Survey MPS 845048
2017 12 14.19539 02 23 18.59 +15 43 06.7 21.4 G G96 – Mt. Lemmon Survey MPS 849096
2017 12 14.20056 02 23 18.42 +15 43 07.7 21.9 G G96 – Mt. Lemmon Survey MPS 849096
2017 12 14.20574 02 23 18.27 +15 43 09.4 21.2 G G96 – Mt. Lemmon Survey MPS 849096
2017 12 14.21095 02 23 18.09 +15 43 10.7 21.0 G G96 – Mt. Lemmon Survey MPS 849096
2019 03 06.32764 12 20 34.18 +22 45 04.9 21.0 G G96 – Mt. Lemmon Survey MPS 977950
2019 03 06.33276 12 20 33.90 +22 45 06.7 21.8 G G96 – Mt. Lemmon Survey MPS 977950
2019 03 06.33789 12 20 33.61 +22 45 06.8 21.3 G G96 – Mt. Lemmon Survey MPS 977950
2019 03 06.34304 12 20 33.37 +22 45 08.7 21.1 G G96 – Mt. Lemmon Survey MPS 977950
2022 09 26.425389 00 09 00.860 -21 26 22.24 21.70 w F52 – Pan-STARRS 2, Haleakala MPS 1663453
2022 09 26.435558 00 09 00.313 -21 26 23.32 21.71 w F52 – Pan-STARRS 2, Haleakala MPS 1663454
2022 09 26.445744 00 08 59.745 -21 26 24.18 21.71 w F52 – Pan-STARRS 2, Haleakala MPS 1663454
2023 10 11.599272 06 54 26.041 +32 21 48.79 22.12 w F52 – Pan-STARRS 2, Haleakala MPS 2013396
2023 10 11.607111 06 54 26.541 +32 21 51.58 21.76 w F52 – Pan-STARRS 2, Haleakala MPS 2013396
2023 10 11.622848 06 54 27.624 +32 21 58.13 21.53 w F52 – Pan-STARRS 2, Haleakala MPS 2013396
2023 10 16.561242 06 59 50.997 +32 56 08.70 21.92 w F52 – Pan-STARRS 2, Haleakala MPS 2013396
2023 10 16.573354 06 59 51.719 +32 56 13.66 22.08 w F52 – Pan-STARRS 2, Haleakala MPS 2013396
2023 10 16.585503 06 59 52.469 +32 56 18.96 21.94 w F52 – Pan-STARRS 2, Haleakala MPS 2013396
2023 10 16.597664 06 59 53.201 +32 56 24.36 22.03 w F52 – Pan-STARRS 2, Haleakala MPS 2013396
2023 12 13.385475 07 13 25.772 +42 09 30.50 20.61 w F52 – Pan-STARRS 2, Haleakala MPS 2078539
2023 12 13.397060 07 13 25.269 +42 09 37.93 20.55 w F52 – Pan-STARRS 2, Haleakala MPS 2078539
2023 12 13.408652 07 13 24.753 +42 09 45.03 20.55 w F52 – Pan-STARRS 2, Haleakala MPS 2078539
2023 12 13.420259 07 13 24.190 +42 09 52.29 20.76 w F52 – Pan-STARRS 2, Haleakala MPS 2078539
2023 12 17.441985 07 10 09.474 +42 49 56.76 20.61 w F52 – Pan-STARRS 2, Haleakala MPS 2092111
2023 12 17.454237 07 10 08.780 +42 50 04.19 20.51 w F52 – Pan-STARRS 2, Haleakala MPS 2092111
2023 12 17.466485 07 10 08.116 +42 50 11.25 20.41 w F52 – Pan-STARRS 2, Haleakala MPS 2092111
2023 12 17.478735 07 10 07.445 +42 50 18.45 20.59 w F52 – Pan-STARRS 2, Haleakala MPS 2092111
2023 12 31.368295 06 55 53.818 +44 44 48.91 20.31 G G96 – Mt. Lemmon Survey MPS 2092111
2023 12 31.373528 06 55 53.422 +44 44 51.72 20.31 G G96 – Mt. Lemmon Survey MPS 2092111
2023 12 31.378771 06 55 53.015 +44 44 53.56 21.45 G G96 – Mt. Lemmon Survey MPS 2092111
2024 01 01.391238 06 54 44.259 +44 51 24.54 20.23 i F51 – Pan-STARRS 1, Haleakala MPS 2092111
2024 01 01.403801 06 54 43.361 +44 51 29.40 20.06 i F51 – Pan-STARRS 1, Haleakala MPS 2092111
2024 01 01.428904 06 54 41.578 +44 51 38.93 20.36 i F51 – Pan-STARRS 1, Haleakala MPS 2092111
2024 01 02.444892 06 53 31.763 +44 57 52.10 20.54 w F51 – Pan-STARRS 1, Haleakala MPS 2092111
2024 01 02.457824 06 53 30.834 +44 57 56.92 20.47 w F51 – Pan-STARRS 1, Haleakala MPS 2092111
2024 01 02.470755 06 53 29.923 +44 58 01.38 20.42 w F51 – Pan-STARRS 1, Haleakala MPS 2092111
2024 01 02.483681 06 53 28.981 +44 58 05.78 20.43 w F51 – Pan-STARRS 1, Haleakala MPS 2092111
2024 01 05.420113 06 50 06.404 +45 14 22.86 20.39 w F52 – Pan-STARRS 2, Haleakala MPS 2111655
2024 01 05.432404 06 50 05.527 +45 14 26.58 20.39 w F52 – Pan-STARRS 2, Haleakala MPS 2111655
2024 01 05.444737 06 50 04.631 +45 14 30.42 20.36 w F52 – Pan-STARRS 2, Haleakala MPS 2111655
2024 03 11.168824 06 33 28.098 +43 09 05.18 21.65 G V00 – Kitt Peak-Bok MPS 2152002
2024 03 11.174458 06 33 28.364 +43 09 03.20 21.43 G V00 – Kitt Peak-Bok MPS 2152002
2024 03 11.180074 06 33 28.663 +43 09 01.44 21.94 G V00 – Kitt Peak-Bok MPS 2152002
2024 03 11.185680 06 33 28.951 +43 08 59.64 21.63 G V00 – Kitt Peak-Bok MPS 2152002